EUTELSAT 36B

Last updated on Sat Jun 14 2025 00:02:44 GMT+0000 (Coordinated Universal Time)

1 36101U 09065A 25164.54002976 .00000127 00000+0 00000+0 0 9990 2 36101 0.0542 6.5458 0005871 73.9873 66.4580 1.00272251 57012
UTC large
Height (km)
Speed (km/s)
/
Latitude / Longitude
Inclination (degrees)
Orbital Period (minutes)
Azimuth
Elevation
Range (km)
Doppler Factor

Next 0 passes for location: London (51.5072 / 0.1276)

Sorry there are no passes over London.